Location: Owatonna
(44.0840°N, 93.2260°W)
Time: 06:25:41
(UTC-06:00)

Tiangong 1 - Visible Passes

Search period start: 07 December 2016 00:00
Search period end: 17 December 2016 00:00
Orbit: 348 x 370 km, 42.8° (Epoch: 07 December)

Date Brightness Start Highest point End Pass type
(mag) Time Alt. Az. Time Alt. Az. Time Alt. Az.
07 Dec 3.0 17:14:54 10° SSW 17:17:08 19° SSE 17:19:22 10° ESE visible
07 Dec 3.0 18:50:00 10° WSW 18:51:36 27° SW 18:51:36 27° SW visible
08 Dec 1.9 17:42:28 10° SW 17:45:18 37° SSE 17:47:00 19° ESE visible
08 Dec 4.4 19:18:19 10° W 19:18:42 13° W 19:18:42 13° W visible
09 Dec 1.1 18:10:35 10° WSW 18:13:35 61° S 18:14:04 51° SE visible
10 Dec 1.8 17:02:54 10° WSW 17:05:50 44° SSE 17:08:44 10° E visible
10 Dec 2.1 18:38:51 10° W 18:41:05 44° WSW 18:41:05 44° WSW visible
11 Dec 1.2 17:31:01 10° WSW 17:34:02 66° S 17:36:24 15° E visible
11 Dec 3.9 19:07:08 10° W 19:08:06 18° W 19:08:06 18° W visible
12 Dec 1.1 17:59:14 10° W 18:02:15 66° S 18:03:26 32° ESE visible
13 Dec 1.7 18:27:28 10° W 18:30:24 45° SSW 18:30:30 45° S visible
14 Dec 1.4 17:19:28 10° W 17:22:30 62° S 17:25:30 10° ESE visible
14 Dec 3.4 18:55:52 10° W 18:57:38 21° SW 18:57:38 21° SW visible
15 Dec 2.2 17:47:40 10° W 17:50:31 38° SSW 17:53:11 11° SE visible
16 Dec 3.5 18:16:06 10° WSW 18:18:23 19° SSW 18:20:36 10° SSE visible
